{"data":{"norad_id":65899,"epoch":"2026-09-20T05:16:16.431168Z","epoch_age_seconds":130288,"freshness":"FRESH","line1":"1 65899U 25224T   26263.21963462  .00018071  00000+0  54458-3 0  9999","line2":"2 65899  53.1610 183.0934 0001043  98.3889 261.7232 15.34405584 54715","mean_motion":15.34405584,"eccentricity":0.0001043,"inclination_deg":53.161,"raan_deg":183.0934,"arg_perigee_deg":98.3889,"mean_anomaly_deg":261.7232,"bstar":0.00054458,"rev_number":5471,"period_min":93.847416551112,"perigee_km":461.97314552665,"apogee_km":463.40014133867,"semimajor_km":6840.8236434327,"source":"CELESTRAK","updated_at":"2026-09-21T09:00:35.759754Z"}}